Powrót do katalogu

STARLINK-3374

AktywnyŁącznośćVLEO
NORAD 51112·PAYLOAD·🇺🇸 United States

Wystrzelony Jan 19, 2022 z Cape Canaveral Space Force Station

Loading…

Następne Przeloty (najbliższe 24 godziny)

TLE

ŚwieżeSource: CelesTrak SupGP

Epoka: Sep 14, 2026, 20:26 UTC

1 51112C 22005J   26257.85187500 -.00031808  00000+0 -93972-3 0  2576
2 51112  53.1576 152.1876 0001278  95.3839 169.2759 15.34407914    12

Śledź STARLINK-3374 w czasie rzeczywistym z AllMySat

Download on the App Store